Location: Cisewo
(53.3833°N, 14.9000°E)
Time: 10:33:37
(UTC+00:00)

BREEZE-M DEB (TANK) - Pass Details

Date: 18 April 2021
Orbit: 790 x 34262 km, 45.8° (Epoch: 12 May)

Event Time Altitude Azimuth Distance (km) Brightness Sun altitude
Rises 19:38:09 0° 256° (WSW) 3,731 7.6 -12.6°
Reaches altitude 10° 19:40:46 10° 247° (WSW) 2,442 6.5 -12.9°
Maximum altitude 19:44:53 40° 176° (S) 1,210 4.2 -13.4°
Enters shadow 19:48:46 17° 113° (ESE) 2,507 5.6 -13.8°
